Wind_Speed
22 23 23 24 24 23 22 22 22 22 22 21 20 20 20 20 20 19 19 18 18 18 17 17 18 18 18 19 19 20 20 21 21 22 22 22 22 22 22 22 22 23 23
24 24 24 24 24 23 23 23 23 23 23 22 21 21 21 20 20 20 19 19 19 19 19 18 18 18 19 19 20 20 20 21 21 22 22 22 23 22 22 22 22 23 23
25 24 25 25 25 25 25 25 25 25 24 24 22 21 20 19 19 19 19 19 19 19 19 19 19 19 20 20 21 20 20 20 20 21 21 21 22 23 23 23 23 23 23
25 25 25 25 25 25 25 26 26 26 25 24 22 21 19 19 18 19 19 20 20 20 20 20 20 20 20 20 20 21 21 21 21 21 21 21 21 22 23 24 24 23 24
25 25 25 24 25 25 25 25 25 25 25 23 22 21 20 19 19 20 20 20 20 21 20 20 20 21 20 20 20 20 20 20 20 20 20 20 21 21 22 23 24 24 24
25 24 24 24 25 25 25 25 25 25 24 23 23 22 21 21 20 21 21 21 21 21 20 20 20 21 20 20 20 20 19 19 19 19 19 19 20 21 21 22 23 23 24
25 24 25 25 25 25 25 25 25 25 24 24 24 23 23 22 22 22 22 22 21 21 21 21 21 21 20 20 19 19 18 19 19 19 19 19 19 20 21 22 22 23 23
25 25 25 25 25 25 24 24 24 25 24 25 25 24 23 23 23 23 22 22 22 22 21 21 20 20 19 19 18 18 18 18 18 18 19 19 19 20 21 22 22 22 22
26 26 26 26 26 25 25 24 24 25 25 25 24 24 24 23 23 23 22 22 22 22 22 21 20 20 19 19 18 18 18 18 19 19 19 20 21 21 21 22 21 21 21
26 27 27 28 27 27 26 26 25 25 25 25 24 23 23 23 23 23 22 22 22 22 21 20 20 19 19 19 19 19 19 19 20 20 20 20 20 21 21 21 21 22 22
27 27 28 28 28 28 28 27 27 26 25 25 24 23 23 23 22 23 23 22 22 22 21 20 19 18 18 19 20 19 19 20 20 20 20 20 20 21 21 22 22 22 23
28 29 28 28 28 28 28 27 26 25 25 25 24 24 24 23 23 22 23 22 21 21 20 18 18 18 18 19 19 18 19 19 20 20 20 21 21 20 20 21 22 22 22
29 29 29 28 28 27 26 26 25 24 24 24 24 24 24 24 23 23 22 22 21 21 20 19 19 19 19 18 18 18 18 19 20 20 21 21 21 20 20 21 21 22 22
29 29 28 27 26 26 26 25 25 24 24 24 24 24 24 23 22 22 22 22 21 21 20 20 19 19 18 18 18 18 18 18 20 21 22 21 21 21 21 21 21 21 20
28 27 26 26 26 26 26 25 25 24 24 24 24 24 23 22 22 22 22 22 21 21 21 21 20 20 20 19 19 19 19 19 20 20 21 21 20 20 20 20 20 20 20
27 26 26 25 25 25 25 25 25 24 23 23 23 22 21 21 21 21 21 21 22 22 22 22 22 21 21 20 20 20 20 20 20 20 20 19 19 19 19 20 20 20 19
25 25 25 25 24 23 23 24 24 23 23 22 21 21 20 20 20 20 20 21 22 22 22 22 22 21 21 21 21 21 21 21 21 20 20 19 19 19 19 19 20 20 19
25 25 24 23 23 23 23 23 23 23 23 22 21 20 20 21 21 20 20 20 20 21 21 21 21 21 21 21 21 21 21 21 21 20 20 20 19 19 19 18 18 19 19
24 24 23 22 22 22 22 23 23 23 22 21 21 21 21 21 21 20 20 19 20 20 21 21 21 21 21 21 21 21 21 20 20 20 20 20 19 18 18 18 17 18 18
22 21 22 22 22 21 22 22 22 22 22 21 21 21 22 22 21 20 20 20 20 20 20 21 21 20 20 20 20 20 20 20 20 20 20 19 18 18 17 18 18 18 19
20 21 21 21 21 21 22 22 22 22 22 22 21 21 21 21 21 21 21 21 21 20 20 21 21 21 21 20 20 20 20 20 20 20 19 19 19 18 18 18 18 18 19
20 20 21 21 22 22 22 22 22 22 22 23 22 22 22 22 22 22 21 21 21 21 21 21 21 21 21 21 21 20 21 21 20 20 20 19 19 19 19 18 19 18 18
20 20 20 21 22 23 23 23 23 23 23 23 24 24 24 23 23 22 22 22 21 21 22 22 22 22 22 21 21 21 21 21 21 20 20 20 20 20 19 19 18 18 18
21 21 21 21 22 23 23 24 24 24 24 24 24 24 24 24 23 23 23 22 22 22 22 23 23 23 23 22 22 22 22 21 21 21 21 21 20 20 19 19 19 19 19
21 21 21 21 22 22 23 23 23 24 24 24 24 24 24 24 25 25 24 23 23 23 24 24 24 24 24 23 23 23 22 22 22 23 22 22 21 21 20 20 20 20 20
21 21 21 21 22 23 23 23 23 23 24 24 24 23 24 25 25 25 25 24 25 25 25 25 25 25 24 24 24 24 24 24 24 24 24 23 22 22 21 21 21 21 21
Wind_Direction
278 279 281 284 287 290 293 297 300 304 303 300 298 296 295 292 292 294 296 295 295 295 294 291 287 283 282 282 281 281 280 279 277 276 275 276 275 276 275 273 273 274 273
278 279 280 282 285 288 290 294 297 300 302 301 301 297 295 293 291 292 294 296 295 294 293 291 289 286 282 284 284 283 283 284 281 278 275 275 275 276 274 272 274 273 272
278 279 280 282 283 285 289 291 295 298 299 301 300 298 296 295 295 295 295 295 295 294 294 292 288 287 286 284 284 285 285 285 284 282 279 277 278 275 273 273 272 270 270
279 279 281 281 282 285 288 289 291 295 296 298 297 296 295 295 295 296 297 297 294 294 294 293 290 288 287 285 284 284 285 286 285 283 282 279 279 277 274 274 272 270 270
279 279 279 280 281 283 285 287 289 291 292 293 292 292 293 293 293 295 296 297 297 295 294 293 291 291 289 287 285 284 285 287 289 288 285 281 280 279 279 278 276 274 270
279 278 280 280 280 282 283 285 287 288 289 289 289 290 290 290 291 294 296 296 296 295 293 292 293 290 289 287 285 283 285 287 289 292 292 288 284 282 281 280 278 275 272
279 279 281 281 281 281 282 284 286 286 286 286 287 286 287 287 288 291 293 296 297 296 294 292 293 290 288 285 283 281 283 286 289 290 294 292 289 286 284 282 279 276 274
277 277 280 282 282 282 282 282 283 284 285 284 284 284 284 285 286 289 293 294 295 295 293 293 293 290 286 284 284 282 282 284 288 290 294 294 293 291 289 288 284 279 276
277 277 278 281 281 281 281 282 282 285 285 284 283 282 283 283 285 288 290 293 293 293 293 293 293 289 286 284 285 285 284 284 288 292 295 296 295 294 291 291 288 285 282
276 277 278 280 280 280 280 281 282 284 285 283 281 281 283 284 285 286 288 290 290 290 291 291 291 289 288 285 287 288 286 286 288 291 294 296 296 295 292 290 288 287 286
275 278 279 280 278 278 278 279 281 281 281 283 283 282 282 282 284 285 286 287 288 288 288 289 289 290 289 288 290 289 288 288 288 290 292 295 297 295 293 289 288 289 288
275 276 277 279 278 277 277 278 279 279 280 282 281 281 282 281 281 283 285 286 287 286 284 284 287 289 290 291 291 291 292 291 289 289 292 296 296 294 292 291 290 290 290
275 276 276 278 277 277 276 277 277 278 279 280 280 280 281 281 281 281 283 284 285 285 282 282 287 291 291 290 291 292 292 290 291 292 293 296 298 296 294 293 293 291 289
275 275 275 276 276 276 275 275 275 276 277 278 279 280 281 280 280 280 280 281 282 283 282 282 285 287 288 289 291 290 291 291 292 293 295 298 299 298 297 297 297 294 291
273 274 274 274 275 275 274 274 274 276 277 278 279 280 280 280 279 279 279 278 279 281 281 280 282 284 285 286 289 288 289 292 294 296 298 299 300 300 300 300 299 297 295
272 273 274 273 273 273 273 273 274 275 275 277 278 279 280 282 281 281 280 278 277 279 281 282 282 283 284 284 285 287 288 291 294 297 300 299 300 301 302 301 301 299 297
272 272 274 273 272 272 273 272 272 272 274 276 277 279 281 283 283 282 281 278 278 278 280 282 284 284 285 284 283 286 287 291 295 298 299 300 300 301 302 303 302 300 297
272 272 273 273 271 271 271 271 271 272 272 274 275 278 280 282 283 283 282 280 279 279 280 284 286 285 286 286 284 285 286 289 292 295 298 301 303 305 305 305 305 303 300
271 270 272 271 270 270 270 270 271 272 272 273 274 275 277 280 282 284 284 283 281 280 281 284 286 287 287 287 287 286 287 288 290 294 296 299 301 306 310 312 312 311 309
270 270 270 269 269 269 269 270 270 271 272 273 275 276 277 279 281 282 282 282 282 281 281 282 284 286 287 288 288 287 287 288 289 292 294 296 298 301 305 309 310 314 315
271 272 271 270 269 269 268 268 269 270 271 272 274 277 278 279 281 281 281 280 280 280 281 282 283 285 286 287 287 288 288 289 290 291 292 293 294 296 299 302 305 308 312
271 271 269 269 269 269 269 268 268 270 272 272 273 276 277 277 278 280 282 280 277 277 279 281 283 284 285 285 285 286 288 290 290 289 290 291 292 293 295 299 302 304 306
269 270 270 270 270 270 270 270 269 270 272 272 272 274 276 276 277 279 282 280 279 278 278 280 281 282 283 284 284 285 287 288 288 288 290 291 292 294 295 297 299 300 302
268 270 271 272 271 271 270 270 270 272 273 273 274 274 275 275 274 276 278 279 279 279 280 280 280 280 281 282 282 283 284 285 286 286 288 291 291 292 294 295 296 297 299
270 272 273 274 273 272 272 272 272 273 273 273 274 273 273 273 274 275 276 277 278 278 279 280 281 281 280 281 282 282 281 282 284 284 285 287 288 289 292 294 294 294 296
274 274 273 274 274 273 273 272 272 273 274 274 273 274 273 273 275 275 276 276 276 277 278 279 279 278 278 278 279 280 280 281 283 282 282 282 283 285 287 290 290 291 292
Height
5836 5835 5835 5834 5833 5832 5830 5829 5827 5825 5823 5820 5819 5817 5816 5815 5814 5812 5811 5809 5808 5806 5805 5804 5803 5802 5802 5801 5801 5800 5800 5799 5799 5798 5798 5798 5797 5797 5796 5796 5797 5797 5797
5830 5830 5829 5829 5828 5827 5826 5824 5822 5821 5818 5815 5813 5812 5810 5809 5808 5807 5806 5805 5803 5802 5800 5799 5798 5798 5797 5797 5796 5795 5794 5793 5793 5792 5791 5791 5791 5790 5790 5790 5790 5790 5790
5824 5824 5824 5823 5822 5821 5820 5819 5817 5815 5813 5811 5808 5806 5805 5804 5803 5802 5801 5800 5799 5797 5796 5794 5793 5793 5792 5791 5790 5789 5789 5788 5787 5786 5785 5784 5784 5783 5783 5783 5783 5783 5783
5818 5818 5817 5817 5817 5816 5815 5813 5812 5810 5808 5806 5804 5802 5800 5799 5799 5797 5796 5795 5794 5792 5791 5790 5788 5787 5786 5785 5784 5784 5783 5782 5781 5779 5779 5778 5777 5776 5775 5776 5776 5776 5776
5812 5812 5811 5811 5810 5810 5809 5807 5806 5805 5803 5801 5799 5798 5796 5795 5794 5793 5791 5790 5789 5787 5786 5785 5783 5782 5781 5780 5779 5778 5777 5776 5775 5773 5772 5771 5771 5770 5769 5768 5768 5769 5769
5806 5805 5805 5804 5804 5803 5802 5801 5800 5799 5798 5796 5795 5793 5792 5790 5789 5787 5786 5785 5783 5782 5781 5779 5778 5777 5775 5774 5773 5772 5772 5770 5769 5768 5767 5765 5765 5764 5763 5762 5761 5761 5762
5799 5799 5798 5797 5797 5797 5796 5795 5794 5793 5792 5790 5789 5788 5787 5785 5784 5782 5780 5779 5778 5776 5775 5773 5772 5771 5769 5768 5767 5767 5766 5765 5764 5763 5761 5760 5759 5758 5757 5756 5754 5754 5754
5793 5792 5792 5791 5791 5790 5790 5789 5788 5787 5785 5784 5783 5782 5780 5779 5778 5776 5775 5773 5772 5771 5769 5768 5766 5765 5763 5763 5762 5761 5761 5760 5759 5757 5756 5755 5753 5752 5751 5749 5748 5747 5747
5786 5786 5785 5784 5784 5784 5783 5782 5781 5780 5779 5777 5776 5775 5774 5773 5771 5770 5769 5768 5766 5765 5763 5761 5760 5758 5758 5757 5757 5756 5755 5754 5753 5752 5750 5749 5748 5746 5744 5743 5742 5741 5740
5779 5779 5778 5778 5777 5777 5776 5776 5775 5773 5772 5771 5770 5768 5767 5766 5765 5764 5763 5762 5761 5759 5757 5756 5754 5753 5752 5752 5751 5751 5750 5749 5748 5746 5745 5743 5742 5740 5738 5736 5735 5734 5733
5771 5771 5771 5770 5769 5769 5769 5768 5767 5766 5765 5764 5763 5762 5761 5760 5759 5758 5757 5755 5754 5753 5751 5750 5749 5747 5747 5747 5746 5745 5744 5743 5742 5740 5739 5738 5736 5734 5732 5730 5728 5727 5726
5764 5763 5763 5762 5762 5761 5761 5760 5760 5759 5758 5757 5756 5755 5754 5753 5753 5752 5750 5749 5748 5747 5746 5745 5744 5743 5742 5741 5740 5739 5738 5737 5736 5735 5733 5732 5730 5728 5726 5724 5722 5720 5718
5756 5755 5755 5755 5754 5754 5753 5753 5752 5751 5751 5750 5749 5748 5747 5746 5746 5745 5744 5743 5742 5741 5741 5740 5739 5738 5737 5736 5735 5734 5733 5732 5730 5729 5728 5726 5724 5722 5719 5717 5715 5713 5712
5748 5747 5747 5747 5747 5746 5746 5745 5745 5744 5744 5743 5742 5741 5740 5740 5739 5738 5737 5737 5736 5735 5735 5734 5733 5732 5732 5731 5730 5729 5728 5726 5725 5723 5722 5720 5718 5715 5713 5711 5709 5707 5706
5739 5739 5739 5738 5738 5739 5738 5738 5738 5737 5736 5736 5735 5734 5733 5733 5732 5731 5730 5730 5730 5729 5729 5728 5728 5727 5726 5725 5724 5723 5723 5721 5719 5718 5716 5714 5712 5710 5708 5705 5703 5701 5700
5731 5732 5731 5731 5731 5731 5731 5731 5730 5730 5730 5729 5728 5727 5727 5726 5726 5725 5724 5724 5723 5723 5722 5722 5722 5721 5720 5720 5719 5718 5717 5716 5714 5712 5710 5708 5707 5705 5703 5700 5698 5696 5694
5724 5724 5724 5723 5723 5724 5724 5724 5724 5724 5723 5723 5722 5722 5721 5721 5720 5719 5718 5718 5717 5717 5716 5716 5715 5715 5714 5713 5713 5712 5711 5710 5709 5707 5705 5703 5701 5699 5697 5695 5693 5691 5689
5717 5716 5716 5716 5716 5717 5717 5717 5717 5717 5718 5717 5717 5716 5716 5715 5714 5713 5712 5712 5711 5711 5710 5710 5709 5708 5707 5707 5706 5706 5705 5704 5703 5702 5700 5698 5696 5694 5692 5690 5688 5686 5684
5710 5710 5710 5710 5710 5710 5710 5710 5711 5711 5711 5711 5711 5711 5710 5709 5709 5708 5707 5706 5706 5705 5705 5704 5703 5702 5702 5701 5700 5700 5699 5698 5697 5696 5695 5693 5692 5690 5688 5686 5684 5682 5679
5703 5703 5703 5703 5703 5704 5704 5704 5704 5704 5704 5705 5705 5705 5704 5704 5703 5702 5701 5701 5700 5700 5699 5698 5697 5697 5696 5695 5694 5694 5693 5692 5692 5690 5689 5688 5686 5685 5683 5681 5679 5678 5675
5696 5696 5696 5696 5697 5697 5697 5697 5698 5698 5698 5698 5698 5698 5698 5697 5697 5696 5696 5695 5694 5694 5693 5692 5692 5691 5690 5690 5689 5688 5687 5687 5686 5685 5684 5682 5681 5680 5678 5677 5675 5673 5671
5690 5690 5690 5690 5690 5691 5691 5691 5691 5691 5691 5691 5692 5692 5691 5691 5691 5690 5690 5689 5688 5688 5687 5687 5686 5685 5684 5684 5683 5682 5682 5681 5680 5679 5678 5677 5676 5674 5673 5671 5670 5668 5666
5684 5684 5684 5684 5684 5684 5684 5684 5684 5684 5684 5684 5684 5684 5684 5684 5684 5683 5683 5682 5681 5681 5681 5680 5679 5679 5678 5677 5677 5676 5676 5675 5674 5673 5672 5671 5670 5669 5667 5666 5664 5663 5661
5677 5677 5677 5677 5677 5677 5677 5677 5677 5677 5677 5677 5677 5677 5677 5677 5677 5676 5676 5675 5674 5674 5674 5673 5673 5672 5671 5670 5670 5669 5669 5668 5667 5667 5666 5665 5664 5663 5662 5660 5659 5657 5656
5671 5670 5670 5670 5670 5670 5670 5670 5670 5670 5670 5670 5670 5670 5670 5669 5669 5669 5668 5668 5667 5667 5667 5666 5665 5665 5664 5663 5663 5662 5662 5661 5661 5660 5659 5658 5657 5657 5656 5654 5653 5652 5650
5664 5664 5664 5664 5663 5663 5663 5663 5663 5663 5662 5662 5662 5662 5662 5662 5661 5661 5661 5660 5660 5659 5659 5658 5658 5657 5656 5656 5656 5655 5655 5654 5653 5652 5652 5651 5651 5650 5649 5648 5647 5646 5644